Regional Weather Roundup
Issued by NWS

Home | Current Version | Previous Version | Text Only | Print | Product List | Glossary Off
Versions: 1 2 3 4 5 6 7 8 9 10 11 12 13 14 15 16 17 18 19 20 21 22 23 24 25 26 27 28 29 30 31 32 33 34 35 36 37 38 39 40 41 42 43 44 45 46 47 48 49 50

000
ASUS43 KMKX 282100
RWRWI

WISCONSIN REGIONAL WEATHER ROUNDUP
NATIONAL WEATHER SERVICE MILWAUKEE/SULLIVAN WI
300 PM CST SUN DEC 28 2014

NOTE: "FAIR" INDICATES FEW OR NO CLOUDS BELOW 12,000 FEET WITH NO
SIGNIFICANT WEATHER AND/OR OBSTRUCTIONS TO VISIBILITY.

WIZ001-002-006>008-014>016-023>028-282200-
NORTHWEST WISCONSIN

CITY           SKY/WX    TMP DP  RH WIND       PRES   REMARKS
SUPERIOR ARPT  SUNNY     14  -3  46 CALM      30.23R
ASHLAND        CLEAR     16   2  54 NW6       30.20R WCI   7
HAYWARD        SUNNY     17   0  47 VRB3      30.17R
SIREN          SUNNY     19   1  45 NW7       30.19R WCI  10
CUMBERLAND     MOSUNNY   19   9  63 N7        30.15R WCI  10
RICE LAKE      PTSUNNY   21  10  63 NW5       30.17R WCI  14
CHETEK         PTSUNNY   21  11  63 NW6       30.16R WCI  14
LADYSMITH      CLOUDY    21  12  67 NW9       30.15R WCI  11
EAU CLAIRE     CLOUDY    19  13  77 CALM      30.17R
MENOMONIE      CLOUDY    20  13  76 CALM      30.18R
NEW RICHMOND   SUNNY     22  13  68 CALM      30.18R
OSCEOLA        MOSUNNY   23  10  59 NW9       30.21R WCI  13
$$

WIZ003>005-009-010-017-018-282200-
NORTH CENTRAL WISCONSIN

CITY           SKY/WX    TMP DP  RH WIND       PRES   REMARKS
MANITOWISH WTR MOCLDY    12   4  73 NW9       30.09R WCI  -1
ARBOR VITAE    CLOUDY    17  11  77 N12       30.09R WCI   4
WOODRUFF       CLOUDY    17  11  77 N12       30.09R WCI   4
RHINELANDER    CLOUDY    17  10  74 N7        30.09R WCI   8
EAGLE RIVER    LGT SNOW  16   8  73 NW10      30.07R WCI   3
LAND O LAKES   CLOUDY    15   8  73 NW8G16    30.08R WCI   3
PHILLIPS       CLOUDY    18   9  68 W6        30.10R WCI   9
TOMAHAWK       FLURRIES  19  12  74 W8        30.09R WCI   9
MEDFORD        LGT SNOW  17  13  86 W3        30.10R
MERRILL        FLURRIES  20  14  76 NW6       30.10R WCI  13
$$

WIZ029-030-035-036-043>047-282200-
CENTRAL WISCONSIN

CITY           SKY/WX    TMP DP  RH WIND       PRES   REMARKS
WAUSAU         CLOUDY    18  13  80 NW5       30.11R HAZE    WCI  11
MOSINEE        NOT AVBL
MARSHFIELD     CLOUDY    19  13  77 W5        30.13R WCI  12
STEVENS POINT  FLURRIES  19  15  84 NW5       30.14R WCI  13
WAUPACA        CLOUDY    29  19  64 W8        30.14R WCI  21
WAUTOMA        NOT AVBL
WISC RAPIDS    CLOUDY    24  16  71 NW7       30.15R WCI  16
CAMP DOUGLAS   NOT AVBL
$$

WIZ011>013-019>022-031-037>040-048>050-282200-
NORTHEAST WISCONSIN

CITY           SKY/WX    TMP DP  RH WIND       PRES   REMARKS
ANTIGO         FLURRIES  18  13  82 W7        30.08R WCI   8
SHAWANO        CLOUDY    26  16  66 W7        30.14R WCI  18
OCONTO         MOCLDY    26  15  62 NW7       30.13R WCI  19
STURGEON BAY   CLEAR     25  14  63 W8        30.14R WCI  16
GREEN BAY      CLOUDY    27  18  69 W9        30.14R WCI  18
MANITOWOC      NOT AVBL
APPLETON       PTSUNNY   27  18  69 NW5       30.13R WCI  21
CLINTONVILLE   CLOUDY    27  18  69 NW6       30.13R WCI  20
OSHKOSH        SUNNY     29  18  63 W6        30.13R WCI  23
$$

WIZ032>034-041-042-053>061-282200-
SOUTHWEST WISCONSIN

CITY           SKY/WX    TMP DP  RH WIND       PRES   REMARKS
LA CROSSE      CLOUDY    29  18  63 N3        30.17R
SPARTA         SUNNY     28  19  67 W3        30.16R
VIROQUA        SUNNY     28  21  74 W5        30.12R WCI  23
BOSCOBEL       SUNNY     33  18  53 SW7       30.16S WCI  27
PRAIRIE DU CHI SUNNY     32  19  58 SW3       30.17R
PLATTEVILLE    SUNNY     31  15  52 CALM      30.16R
$$

WIZ056-057-062-063-064-067-068-282200-
SOUTH CENTRAL WISCONSIN

CITY           SKY/WX    TMP DP  RH WIND       PRES   REMARKS
REEDSBURG      CLOUDY    30  19  63 NW5       30.13S WCI  25
BARABOO/DELLS  MOSUNNY   31  18  58 W8        30.13R WCI  23
LONE ROCK      NOT AVBL
MINERAL POINT  SUNNY     32  19  59 W6        30.13R WCI  26
MADISON        MOSUNNY   32  18  56 NW6       30.14R WCI  26
MIDDLETON      SUNNY     34  19  55 W9        30.14R WCI  26
WATERTOWN      SUNNY     31  20  63 NW7       30.14R WCI  24
MONROE         SUNNY     32  21  64 W7        30.13S WCI  26
JANESVILLE     SUNNY     36  18  48 W8        30.14R WCI  29
$$

WIZ051-052-058>065-066-070>072-282200-
SOUTHEAST WISCONSIN

CITY           SKY/WX    TMP DP  RH WIND       PRES   REMARKS
MILWAUKEE      MOSUNNY   33  17  51 W8        30.15R WCI  26
WAUKESHA       MOSUNNY   28  18  64 NW13      30.14R WCI  18
MILWAUKEE/TIMM SUNNY     32  18  55 W10       30.14R WCI  24
RACINE         SUNNY     33  18  53 W9        30.16R WCI  25
BURLINGTON     SUNNY     32  19  58 W9        30.14R WCI  24
KENOSHA        SUNNY     34  21  59 W10       30.14R WCI  26
FOND DU LAC    SUNNY     30  18  60 W6        30.14R WCI  24
SHEBOYGAN      SUNNY     29  18  63 NW8       30.14R WCI  21
WEST BEND      SUNNY     30  19  64 NW7       30.12R WCI  23
JUNEAU         SUNNY     29  19  66 W6        30.14R WCI  23
$$

LSZ147-162-282200-
LAKE SUPERIOR

STATION/POSITION TIME  TEMP    WIND        PRES    WAVE
                       AIR SEA DIR/SP/G            HT/PER
                 (UTC) (F)     (DEG/KT/KT) (MB)    (FT/S)
DEVILS ISLAND    2000   13     310/ 10/ 12 1023.9R
PORT WING        2040   15     290/  7/ 11 1023.4R
SAXON HARBOR     2000   18     310/  8/ 13 1022.0R
$$

LMZ867-665-643>646-282200-
LAKE MICHIGAN

STATION/POSITION TIME  TEMP    WIND        PRES    WAVE
                       AIR SEA DIR/SP/G            HT/PER
                 (UTC) (F)     (DEG/KT/KT) (MB)    (FT/S)
CHAMBERS ISLAND  2000   26     290/  6/  9 1019.3R
NORTHPORT PIER   2006   25     290/  6/ 15 1019.0F
SISTER BAY       2013          310/ 14/ 17   N/A
KEWAUNEE LAKESHO 2000   27     280/  8/ 13 1018.7R
SHEBOYGAN LAKESH 2000   29 36  300/  7/  9 1021.2R
PORT WASHINGTON  2000   32     290/  8/ 10 1021.0
MILWAUKEE LAKESH 2000   32     280/  9/ 11   N/A
KENOSHA   LAKESH 2000   33     260/ 10/ 12 1020.7R
$$

TC  - TEMPERATURE IN CELSIUS
VSB - VISIBILITY IN STATUTE MILES
WCI - WIND CHILL INDEX
HX  - HEAT INDEX




USA.gov is the U.S. government's official web portal to all federal, state and local government web resources and services.